Hourly Data Report for May 19, 2019

MIRAMICHI RCS
NEW BRUNSWICK
Current Station Operator: ECCC - MSC

47°00'34.000" N
65°27'54.000" W
33.00 m
8100989
71744
ACQ

Download Data

Hourly Data (May 2019)
Hourly Data Report for May 19, 2019
TIME
LST
Temp Definition
°C
Dew Point Definition
°C
Rel Hum Definition
%
Precip. Amount Definition
mm

Wind Dir Definition
10's deg

Wind Spd Definition
km/h
Visibility Definition
km
Stn Press Definition
kPa
Hmdx Definition


Wind Chill Definition


Weather Definition


00:00 1.9 1.1 94 0.0 27 9   101.34     LegendNANA
01:00 2.8 1.8 93 0.0 27 9   101.38     LegendNANA
02:00 3.7 2.6 93 0.0 27 9   101.42     LegendNANA
03:00 3.1 2.1 94 0.0 25 7   101.40     LegendNANA
04:00 2.5 1.7 94 0.0 26 8   101.47     LegendNANA
05:00 2.0 1.3 96 0.0 26 5   101.46     LegendNANA
06:00 3.6 2.5 93 0.0 26 7   101.54     LegendNANA
07:00 5.5 3.3 86 0.0 25 6   101.56     LegendNANA
08:00 7.0 3.6 79 0.0 17 3   101.58     LegendNANA
09:00 9.8 4.4 69 0.0 20 3   101.56     LegendNANA
10:00 12.4 3.6 55 0.0 23 9   101.50     LegendNANA
11:00 13.7 2.9 48 0.0 24 13   101.46     LegendNANA
12:00 15.2 1.9 41 0.0 25 11   101.42     LegendNANA
13:00 15.8 1.4 38 0.0 27 10   101.35     LegendNANA
14:00 15.2 2.4 42 0.0 25 13   101.35     LegendNANA
15:00 15.2 3.0 44 0.0 25 10   101.35     LegendNANA
16:00 15.2 2.0 41 0.0 18 3   101.35     LegendNANA
17:00 15.4 3.0 43 0.0 10 3   101.34     LegendNANA
18:00 15.0 3.5 46 0.0 6 5   101.35     LegendNANA
19:00 12.8 6.8 67 0.0 10 10   101.33     LegendNANA
20:00 11.9 5.2 64 0.0 12 6   101.38     LegendNANA
21:00 10.3 6.3 76 0.0 6 7   101.34     LegendNANA
22:00 9.4 6.4 81 0.0 36 2   101.36     LegendNANA
23:00 9.4 6.5 82 0.0 19 5   101.37     LegendNANA

Notes on Data Quality.

Legend

  • E = Estimated
  • M = Missing
  • NA = Not Available*
  • [empty] = Indicates an unobserved value
Date modified: